Location: Hermaringen
(48.5952°N, 10.2585°E)
Time: 07:23:59
(UTC+00:00)

Altair - Pass Details

Date: 16 February 2026
Orbit: 1502 x 1682 km, 47.2° (Epoch: 9 March)

Event Time Altitude Azimuth Distance (km) Brightness Sun altitude
Rises 03:48:23 0° 214° (SW) 4,625 - -26.4°
Reaches altitude 10° 03:51:36 10° 208° (SSW) 3,652 - -25.9°
Exits shadow 03:53:17 16° 202° (SSW) 3,177 8.8 -25.6°
Maximum altitude 03:59:56 41° 142° (SE) 2,100 8.4 -24.6°
Drops below altitude 10° 04:08:29 10° 77° (ENE) 3,754 10.6 -23.2°
Sets 04:11:49 0° 71° (ENE) 4,766 11.5 -22.6°
